Tracking 25193 objects as of 18-Jan-2022
HD Live streaming from Space Station
objects crossing your sky now

STARLINK-1688

Track STARLINK-1688 now!
10-day predictions
STARLINK-1688 is classified as:


NORAD ID: 46371
Int'l Code: 2020-062AY
Perigee: 553.4 km
Apogee: 555.5 km
Inclination: 53.1 °
Period: 95.6 minutes
Semi major axis: 6925 km
RCS: Unknown
Launch date: September 3, 2020
Source: United States (US)
Launch site: AIR FORCE EASTERN TEST RANGE (AFETR)
aabbcc
Your satellite tracking list
Your tracking list is empty




NASA's NSSDC Master Catalog

Two Line Element Set (TLE):
1 46371U 20062AY  22017.77963428 -.00004713  00000-0 -29791-3 0  9997
2 46371  53.0536 303.8477 0001520  62.9352 297.1792 15.06377755 76895
Source of the keplerian elements: AFSPC